Location: Alexander
(41.3564°N, 81.5960°W)
Time: 14:43:25
(UTC+00:00)

CREW DRAGON DEMO-1 DEB - Pass Details

Date: 24 January 2021
Orbit: 334 x 338 km, 51.6° (Epoch: 01 March)

Event Time Altitude Azimuth Distance (km) Brightness Sun altitude
Rises 23:38:38 0° 306° (NW) 2,165 7.3 -12.4°
Reaches altitude 10° 23:40:39 10° 307° (NW) 1,314 6.1 -12.8°
Maximum altitude 23:43:35 82° 34° (NE) 355 2.5 -13.3°
Enters shadow 23:45:24 21° 122° (ESE) 856 4.2 -13.6°
